Tracking 25701 objects as of 3-Jul-2022
HD Live streaming from Space Station
objects crossing your sky now

ECHO 1 DEB (METAL OBJ)

Track ECHO 1 DEB (METAL OBJ) now!
10-day predictions


NORAD ID: 51
Int'l Code: 1960-009C
Perigee: 1,520.3 km
Apogee: 1,694.0 km
Inclination: 47.2 °
Period: 118.2 minutes
Semi major axis: 7978 km
RCS: 0.6323 m2 (medium)
Launch date: August 12, 1960
Source: United States (US)
Launch site: AIR FORCE EASTERN TEST RANGE (AFETR)

Note: This is SATELLITE DEBRIS
aabbcc
Your satellite tracking list
Your tracking list is empty




NASA's NSSDC Master Catalog

Two Line Element Set (TLE):
1 00051U 60009C   22183.85841540 -.00000026  00000-0  56350-3 0  9993
2 00051  47.2100 201.3213 0108834 220.1485 139.1223 12.18283547754963
Source of the keplerian elements: AFSPC